Find Raduga

NORAD ID: 21821 Int'l Des: 1991-087 Owner: UNKSR Country: SU operational
HEOCIRCULARGSO

Current View

Loading 3D Globe...

About Raduga

Raduga (NORAD 21821) is a satellite launched Dec 19, 1991 by UNKSR of SU. It operates in HEO, CIRCULAR, GSO orbit with a mass of 1965.00 kg.

Upcoming Passes

Passes for default location (London). Set your location on the main map for personalized predictions.

Altitude History

Loading altitude history...

Two-Line Element Set

1 21821U 91087A 26194.50141883 .00000006 00000-0 00000+0 0 9996
2 21821 13.3447 340.8648 0004861 185.3305 5.2340 1.00356168126581
Epoch: Jul 13, 2026 • Age: 17 hours

Current Status

Altitude 35764.6 km
Apogee / Perigee N/A
Velocity 3.08 km/s
Sub-Earth Point 13.35°N, 59.62°E
Launch Date Dec 19, 1991
Age 34.5 years
Type other

Technical Details

Classification Payload
Mass 1965.00 kg
Dry Mass 1800.00 kg
Total Mass 1965.00 kg
Length 5.50 m
Diameter 2.50 m
Span 9.50 m
Shape Step Cyl + 2 Pan
Manufacturer NPOPM
Bus Type Raduga
Phase Status In Orbit
Owner/State UNKSR/SU

Most Searched